星链-4618 (STARLINK-4618 )

导读

STARLINK-4618是美国SpaceX公司星链(Starlink)星座的一员,于2022年9月5日发射入轨,属于星链第二代组网卫星,服务全球卫星宽带互联网项目。 它运行在近地轨道,配备相控阵天线与氪离子推进系统,支持高速互联网接入,可为偏远地区、移动场景提供低延迟宽带服务,星链计划最终将部署数万颗类似卫星,实现全球无缝网络覆盖,该星也承担着拓展星座覆盖密度的任务。

基本信息
目录编号:
53735
目录名称:
STARLINK-4618
国际标识:
2022-107AM
轨道中心:
EARTH
卫星名称:
星链-4618
卫星全名:
星链-4618 (STARLINK-4618 )
卫星状态:
在轨 (已飞行1381 天)
发射日期:
2022-09-05 UTC
国别 :
美国 (US)
星等 :
--
轨道信息
数据来源 国际轨道数据 AOE轨道数据
星历时间 2026-06-17T02:27:10+0800
13小时前
查看轨道信息
2026-06-17T00:00:00+0800
16小时前
查看轨道信息
半长轴 6917.893km 6917.916km
偏心率 0.0001276 0.0001349
轨道倾角 53.159° 53.158°
近地点辐角 72.086° 69.256°
升交点赤经 179.057° 179.518°
平近点角 288.027° 95.395°
近地点 538.873km 538.845km
远地点 540.639km 540.713km
周期 95.438分钟 95.438分钟
每日圈数 15.088359 15.088286
详细信息
固有亮度:
5
最大亮度:
2.5
卫星平台:
Starlink v1.5
覆盖范围:
全球
运营商:
太空探索技术公司
运营商所在国:
美国
制造商(研发单位):
太空探索技术公司
制造商所在国:
美国
使用方式:
暂无
卫星简介
星链(Starlink)计划是由太空探索技术公司(SpaceX)提出的一个巨型低轨卫星互联网星座项目,计划在2019年至2024年间在太空搭建由约1.2万颗卫星组成的“星链”网络,其中1584颗将部署在地球上空550千米处的近地轨道,并从2020年开始工作。该卫星仍在工作。
2D轨道图
3D轨道图
轨道高度分析图
轨道倾角分析图
轨道综合分析图
查看轨道综合分析图